TimeCDT,TemperatureF,Dew PointF,Humidity,Sea Level PressureIn,VisibilityMPH,Wind Direction,Wind SpeedMPH,Gust SpeedMPH,PrecipitationIn,Events,Conditions,WindDirDegrees,DateUTC
2:55 AM,57.0,55.9,96,30.08,8.0,Calm,Calm,-,N/A,,Clear,0,2013-07-11 07:55:00
3:55 AM,57.0,55.9,96,30.08,5.0,Calm,Calm,-,N/A,,Clear,0,2013-07-11 08:55:00
4:55 AM,55.0,54.0,96,30.08,6.0,Calm,Calm,-,N/A,,Clear,0,2013-07-11 09:55:00
5:27 AM,53.6,53.6,100,30.09,2.5,Calm,Calm,-,N/A,,Clear,0,2013-07-11 10:27:00
5:35 AM,55.4,53.6,94,30.09,3.0,Calm,Calm,-,N/A,,Clear,0,2013-07-11 10:35:00
5:44 AM,55.4,55.4,100,30.09,2.5,Calm,Calm,-,N/A,,Clear,0,2013-07-11 10:44:00
5:55 AM,55.9,55.0,97,30.09,3.0,NNE,4.6,-,N/A,,Clear,20,2013-07-11 10:55:00
6:55 AM,61.0,59.0,93,30.11,6.0,Calm,Calm,-,N/A,,Clear,0,2013-07-11 11:55:00
7:55 AM,68.0,62.1,81,30.12,8.0,NE,3.5,-,N/A,,Clear,40,2013-07-11 12:55:00
8:55 AM,73.0,62.1,68,30.12,9.0,NE,5.8,-,N/A,,Clear,40,2013-07-11 13:55:00
9:55 AM,75.9,61.0,60,30.12,10.0,East,4.6,-,N/A,,Clear,80,2013-07-11 14:55:00
10:55 AM,78.1,57.9,50,30.12,10.0,East,6.9,-,N/A,,Clear,100,2013-07-11 15:55:00
11:55 AM,80.1,57.9,47,30.12,10.0,East,8.1,-,N/A,,Clear,80,2013-07-11 16:55:00
12:55 PM,81.0,57.9,45,30.12,10.0,NE,5.8,-,N/A,,Clear,50,2013-07-11 17:55:00
1:55 PM,82.0,57.0,42,30.11,10.0,ENE,4.6,-,N/A,,Clear,70,2013-07-11 18:55:00
2:55 PM,84.0,57.9,41,30.10,10.0,Calm,Calm,-,N/A,,Clear,0,2013-07-11 19:55:00
3:55 PM,82.9,55.9,39,30.08,10.0,ENE,9.2,-,N/A,,Clear,70,2013-07-11 20:55:00
4:55 PM,82.0,57.9,44,30.08,10.0,East,9.2,-,N/A,,Clear,80,2013-07-11 21:55:00
5:55 PM,82.0,55.9,41,30.07,10.0,East,8.1,-,N/A,,Clear,90,2013-07-11 22:55:00
6:55 PM,80.1,57.0,45,30.06,10.0,East,6.9,-,N/A,,Clear,80,2013-07-11 23:55:00
7:55 PM,77.0,60.1,56,30.05,10.0,East,4.6,-,N/A,,Clear,80,2013-07-12 00:55:00
8:55 PM,71.1,59.0,66,30.04,10.0,East,4.6,-,N/A,,Clear,80,2013-07-12 01:55:00
9:55 PM,63.0,59.0,87,30.06,10.0,Calm,Calm,-,N/A,,Clear,0,2013-07-12 02:55:00
10:55 PM,66.9,57.0,70,30.06,10.0,East,4.6,-,N/A,,Clear,100,2013-07-12 03:55:00
11:55 PM,61.0,55.9,83,30.08,10.0,ESE,3.5,-,N/A,,Clear,120,2013-07-12 04:55:00